Sigonella, Italy

3:18 PM CET on December 17, 2017 (GMT +0100)
Sigonella Mil

Weather History for LICZ - September, 2013

Change the Weather History Date:

Tuesday, September 24, 2013

  Actual Average Record
Temperature  
Mean Temperature 68 °F -  
Max Temperature 82 °F 78 °F 99 °F (2012)
Min Temperature 53 °F 57 °F 53 °F (2013)
Cooling Degree Days 2    
Growing Degree Days 18 (Base 50)    
Moisture  
Dew Point 58 °F    
Average Humidity 76    
Maximum Humidity 100    
Minimum Humidity 26    
Precipitation  
Precipitation 0.00 in 0.09 in - ()
Sea Level Pressure  
Sea Level Pressure 30.05 in    
Wind  
Wind Speed 5 mph ()    
Max Wind Speed 13 mph    
Max Gust Speed -    
Visibility 6.7 miles    
Events      
Averages and records for this station are not official NWS values.
T = Trace of Precipitation, MM = Missing Value Source: Averaged Metar Reports

Daily Weather History Graph

Daily Weather History Graph

Search for Another Location

Airport or City:

Trip Planner

Search our weather history database for the weather conditions in past years. The results will help you decide how hot, cold, wet, or windy it might be!

Date:

Astronomy

Sep. 24, 2013 Rise Set
Actual Time 6:49 AM CEST 6:54 PM CEST
Civil Twilight 6:23 AM CEST 7:20 PM CEST
Nautical Twilight 5:53 AM CEST 7:50 PM CEST
Astronomical Twilight 5:22 AM CEST 8:21 PM CEST
Moon 10:04 PM CEST (9/24) 11:42 AM CEST (9/24)
Length of Visible Light 12h 56m
Length of Day
12h 04m
Waning Gibbous, 75% of the Moon is Illuminated
Sep 24
Waning Gibbous
Sep 27
Last Quarter
Oct 5
New
Oct 12
First Quarter
Oct 19
Full

Hourly Weather History & Observations

Time (CEST) Temp. Dew Point Humidity Pressure Visibility Wind Dir Wind Speed Gust Speed Precip Events Conditions
12:55 AM 59.0 °F 59.0 °F 100% 30.09 in 6.2 mi West 4.6 mph - N/A   Partly Cloudy
1:55 AM 59.0 °F 59.0 °F 100% 30.06 in 6.2 mi WNW 5.8 mph - N/A   Partly Cloudy
2:00 AM 59 °F 58 °F 97% 30.07 in 9 mi WNW 5.8 mph - -   Scattered Clouds
2:55 AM 59.0 °F 57.2 °F 94% 30.04 in 6.2 mi WNW 5.8 mph - N/A   Partly Cloudy
3:55 AM 59.0 °F 59.0 °F 100% 30.04 in 6.2 mi NW 5.8 mph - N/A   Partly Cloudy
4:55 AM 59.0 °F 59.0 °F 100% 30.04 in 6.2 mi WNW 4.6 mph - N/A   Partly Cloudy
5:00 AM 59 °F 58 °F 97% 30.05 in 9 mi WNW 4.6 mph - -   Scattered Clouds
5:55 AM 57.2 °F 57.2 °F 100% 30.04 in - West 3.5 mph - N/A   Clear
6:55 AM 53.6 °F 53.6 °F 100% 30.04 in - WSW 5.8 mph - N/A   Clear
7:55 AM 55.4 °F 55.4 °F 100% 30.04 in - WNW 4.6 mph - N/A   Clear
8:00 AM 55 °F 55 °F 98% 30.05 in 11 mi WNW 4.6 mph - -  
8:55 AM 60.8 °F 59.0 °F 94% 30.06 in - WNW 4.6 mph - N/A   Clear
9:55 AM 66.2 °F 57.2 °F 73% 30.09 in - NW 5.8 mph - N/A   Clear
10:55 AM 68.0 °F 51.8 °F 56% 30.06 in - WNW 3.5 mph - N/A   Clear
11:00 AM 69 °F 52 °F 44% 30.08 in 6 mi WNW 3.5 mph - -  
11:55 AM 75.2 °F 57.2 °F 53% 30.09 in 6.2 mi NW 6.9 mph - N/A   Partly Cloudy
12:55 PM 77.0 °F 51.8 °F 41% 30.06 in - NNW 3.5 mph - N/A   Clear
1:55 PM 77.0 °F 50.0 °F 39% 30.04 in 6.2 mi NW 3.5 mph - N/A   Partly Cloudy
2:00 PM 78 °F 49 °F 26% 30.06 in 6 mi NW 3.5 mph - -   Scattered Clouds
2:55 PM 80.6 °F 51.8 °F 37% 30.04 in 6.2 mi SSE 3.5 mph - N/A   Partly Cloudy
3:55 PM 78.8 °F 53.6 °F 42% 30.04 in 6.2 mi East 10.4 mph - N/A   Partly Cloudy
4:55 PM 77.0 °F 50.0 °F 39% 30.04 in - East 12.7 mph - N/A   Clear
5:00 PM 77 °F 51 °F 29% 30.04 in 6 mi East 12.7 mph - -  
5:55 PM 75.2 °F 59.0 °F 57% 30.04 in - ESE 11.5 mph - N/A   Clear
6:55 PM 71.6 °F 66.2 °F 83% 30.04 in - East 10.4 mph - N/A   Clear
7:55 PM 69.8 °F 68.0 °F 94% 30.04 in - East 6.9 mph - N/A   Clear
8:00 PM 71 °F 68 °F 87% 30.05 in 6 mi East 6.9 mph - -  
8:55 PM 68.0 °F 66.2 °F 94% 30.04 in - East 4.6 mph - N/A   Clear
9:55 PM 68.0 °F 66.2 °F 94% 30.04 in - Calm Calm - N/A   Clear
10:55 PM 66.2 °F 62.6 °F 88% 30.04 in 6.2 mi WNW 5.8 mph - N/A   Partly Cloudy
11:00 PM 65 °F 63 °F 92% 30.06 in 6 mi WNW 5.8 mph - -   Scattered Clouds
11:55 PM 66.2 °F 62.6 °F 88% 30.04 in - NW 4.6 mph - N/A   Clear